This is the latest recevied weather packets stored in our database for station/object M0JUI-1. If no packets are shown the sender has not sent any weather packets the latest 10 day(s).
| Time | Temp. | Humidity | Pressure | Rain* | Wind** | Luminosity | Snow |
|---|---|---|---|---|---|---|---|
| 1788619989 | 18.33° C | 99% | 1024.2 hPa | 0 mm | - | 131 W/m² | - |
| 1788619689 | 18.89° C | 99% | 1024.2 hPa | 0 mm | - | 175 W/m² | - |
| 1788619390 | 18.89° C | 99% | 1024.2 hPa | 0 mm | - | 447 W/m² | - |
| 1788619089 | 18.89° C | 99% | 1024.4 hPa | 0 mm | - | 175 W/m² | - |
| 1788618789 | 18.89° C | 99% | 1024.2 hPa | 0 mm | - | 150 W/m² | - |
| 1788618489 | 19.44° C | 97% | 1024.1 hPa | 0 mm | - | 205 W/m² | - |
| 1788618178 | 18.89° C | 99% | 1024.4 hPa | 0 mm | - | 318 W/m² | - |
| 1788617878 | 18.89° C | 99% | 1024.3 hPa | 0 mm | - | 220 W/m² | - |
| 1788617577 | 19.44° C | 99% | 1024.3 hPa | 0 mm | - | 192 W/m² | - |
| 1788617297 | 19.44° C | 98% | 1024.4 hPa | 0 mm | - | 193 W/m² | - |
| 1788616977 | 18.89° C | 97% | 1024.3 hPa | 0 mm | - | 670 W/m² | - |
| 1788616677 | 19.44° C | 97% | 1024.2 hPa | 0 mm | - | 267 W/m² | - |
| 1788616377 | 19.44° C | 97% | 1024 hPa | 0 mm | - | 450 W/m² | - |
| 1788616065 | 19.44° C | 99% | 1023.9 hPa | 0 mm | - | 609 W/m² | - |
| 1788615765 | 19.44° C | 98% | 1024.1 hPa | 0 mm | - | 501 W/m² | - |
| 1788615465 | 18.89° C | 99% | 1024 hPa | 0 mm | - | 565 W/m² | - |
| 1788615153 | 18.33° C | 99% | 1024 hPa | 0 mm | - | 301 W/m² | - |
| 1788614853 | 18.33° C | 99% | 1023.9 hPa | 0 mm | - | 290 W/m² | - |
| 1788614553 | 18.33° C | 99% | 1024.1 hPa | 0 mm | - | 265 W/m² | - |
| 1788614241 | 18.33° C | 99% | 1024.1 hPa | 0 mm | - | 226 W/m² | - |
| 1788613941 | 18.89° C | 99% | 1024.1 hPa | 0 mm | - | 214 W/m² | - |
| 1788613641 | 18.89° C | 99% | 1024 hPa | 0 mm | - | 297 W/m² | - |
| 1788613329 | 18.89° C | 98% | 1023.9 hPa | 0 mm | - | 370 W/m² | - |
| 1788613029 | 19.44° C | 96% | 1024 hPa | 0 mm | - | 248 W/m² | - |
| 1788612729 | 18.89° C | 99% | 1023.9 hPa | 0 mm | - | 464 W/m² | - |
* Rain latest hour (hover to see other rain measurements)
** Current wind speed in m/s (hover to see current wind gust speed)